| time (UTC) | temp C | wind direction | speed KPH | gust KPH | rain 1hr cm | rain 24hr cm | rain mn cm | humidity % | barometer mb |
| 20260904125512 | 26 | 214 | 0.0 | 3.2 | 0.00 | 0.00 | 0.00 | 77 | 1012.0 |
| 20260904125016 | 25 | 214 | 0.0 | 3.2 | 0.00 | 0.00 | 0.00 | 77 | 1012.0 |
| 20260904124508 | 25 | 215 | 0.0 | 3.2 | 0.00 | 0.00 | 0.00 | 78 | 1011.9 |
| 20260904124005 | 25 | 215 | 0.0 | 3.2 | 0.00 | 0.00 | 0.00 | 77 | 1011.8 |
| 20260904123508 | 25 | 154 | 0.0 | 3.2 | 0.00 | 0.00 | 0.00 | 78 | 1011.7 |
| 20260904123007 | 25 | 154 | 0.0 | 3.2 | 0.00 | 0.00 | 0.00 | 77 | 1011.6 |
| 20260904122656 | 25 | 154 | 0.0 | 3.2 | 0.00 | 0.00 | 0.00 | 77 | 1011.6 |
| 20260904122651 | 25 | 153 | 0.0 | 3.2 | 0.00 | 0.00 | 0.00 | 76 | 1011.6 |
| 20260904122647 | 25 | 153 | 0.0 | 3.2 | 0.00 | 0.00 | 0.00 | 76 | 1011.6 |
| 20260904122644 | 25 | 153 | 0.0 | 3.2 | 0.00 | 0.00 | 0.00 | 77 | 1011.6 |
| 20260904120511 | 25 | 153 | 0.0 | 3.2 | 0.00 | 0.00 | 0.00 | 77 | 1011.6 |
| 20260904120020 | 25 | 153 | 0.0 | 3.2 | 0.00 | 0.00 | 0.00 | 76 | 1011.5 |
| 20260904115509 | 25 | 153 | 0.0 | 3.2 | 0.00 | 0.00 | 0.00 | 76 | 1011.5 |
| 20260904115009 | 25 | 153 | 0.0 | 3.2 | 0.00 | 0.00 | 0.00 | 75 | 1011.5 |
| 20260904114520 | 25 | 153 | 0.0 | 1.6 | 0.00 | 0.00 | 0.00 | 75 | 1011.5 |
| 20260904114007 | 25 | 153 | 0.0 | 3.2 | 0.00 | 0.00 | 0.00 | 75 | 1011.5 |
| 20260904113506 | 25 | 153 | 0.0 | 3.2 | 0.00 | 0.00 | 0.00 | 74 | 1011.5 |
| 20260904113020 | 25 | 138 | 0.0 | 3.2 | 0.00 | 0.00 | 0.00 | 74 | 1011.5 |
| 20260904112507 | 25 | 154 | 0.0 | 3.2 | 0.00 | 0.00 | 0.00 | 74 | 1011.5 |
| 20260904112007 | 25 | 182 | 0.0 | 3.2 | 0.00 | 0.00 | 0.00 | 73 | 1011.5 |
| 20260904111517 | 26 | 180 | 0.0 | 3.2 | 0.00 | 0.00 | 0.00 | 73 | 1011.5 |
| 20260904111010 | 26 | 198 | 0.0 | 3.2 | 0.00 | 0.00 | 0.00 | 73 | 1011.5 |
| 20260904110512 | 26 | 196 | 0.0 | 3.2 | 0.00 | 0.00 | 0.00 | 72 | 1011.5 |
| 20260904110010 | 26 | 181 | 0.0 | 4.8 | 0.00 | 0.00 | 0.00 | 72 | 1011.5 |
| 20260904105512 | 26 | 173 | 0.0 | 4.8 | 0.00 | 0.00 | 0.00 | 72 | 1011.4 |
| 20260904105012 | 26 | 150 | 0.0 | 6.4 | 0.00 | 0.00 | 0.00 | 72 | 1011.4 |
| 20260904104528 | 26 | 165 | 0.0 | 8.0 | 0.00 | 0.00 | 0.00 | 71 | 1011.3 |
| 20260904104012 | 26 | 256 | 0.0 | 8.0 | 0.00 | 0.00 | 0.00 | 71 | 1011.3 |
| 20260904103511 | 26 | 204 | 0.0 | 6.4 | 0.00 | 0.00 | 0.00 | 70 | 1011.4 |
| 20260904103041 | 26 | 328 | 1.6 | 6.4 | 0.00 | 0.00 | 0.00 | 70 | 1011.4 |
| 20260904102506 | 26 | 194 | 1.6 | 4.8 | 0.00 | 0.00 | 0.00 | 70 | 1011.4 |
| 20260904102006 | 26 | 137 | 1.6 | 4.8 | 0.00 | 0.00 | 0.00 | 70 | 1011.4 |
| 20260904101514 | 26 | 322 | 0.0 | 6.4 | 0.00 | 0.00 | 0.00 | 69 | 1011.3 |
| 20260904101009 | 27 | 248 | 1.6 | 6.4 | 0.00 | 0.03 | 0.00 | 69 | 1011.3 |
| 20260904100512 | 27 | 306 | 3.2 | 6.4 | 0.00 | 0.05 | 0.00 | 68 | 1011.3 |
| 20260904100018 | 27 | 123 | 1.6 | 8.0 | 0.00 | 0.05 | 0.00 | 68 | 1011.3 |
| 20260904095512 | 27 | 197 | 1.6 | 9.7 | 0.00 | 0.05 | 0.00 | 68 | 1011.2 |
| 20260904095012 | 27 | 242 | 3.2 | 12.9 | 0.00 | 0.05 | 0.00 | 68 | 1011.2 |
| 20260904094521 | 27 | 293 | 4.8 | 12.9 | 0.00 | 0.05 | 0.00 | 68 | 1011.1 |
| 20260904094007 | 27 | 207 | 3.2 | 11.3 | 0.00 | 0.05 | 0.00 | 68 | 1011.2 |
| 20260904093515 | 27 | 322 | 3.2 | 9.7 | 0.00 | 0.05 | 0.00 | 68 | 1011.1 |
| 20260904093018 | 27 | 157 | 1.6 | 9.7 | 0.00 | 0.05 | 0.00 | 67 | 1011.0 |
| 20260904092512 | 27 | 274 | 1.6 | 9.7 | 0.00 | 0.05 | 0.00 | 67 | 1011.0 |
| 20260904092016 | 27 | 211 | 3.2 | 9.7 | 0.00 | 0.05 | 0.00 | 67 | 1010.9 |
| 20260904091516 | 27 | 168 | 0.0 | 6.4 | 0.00 | 0.05 | 0.00 | 67 | 1010.8 |
| 20260904091015 | 27 | 245 | 1.6 | 8.0 | 0.00 | 0.05 | 0.00 | 67 | 1010.8 |
| 20260904090513 | 27 | 126 | 1.6 | 11.3 | 0.00 | 0.05 | 0.00 | 67 | 1010.8 |
| 20260904090014 | 27 | 184 | 3.2 | 11.3 | 0.00 | 0.05 | 0.00 | 67 | 1010.7 |
| 20260904085511 | 27 | 266 | 3.2 | 6.4 | 0.00 | 0.05 | 0.00 | 67 | 1010.7 |
| 20260904085013 | 27 | 304 | 1.6 | 11.3 | 0.00 | 0.05 | 0.00 | 67 | 1010.8 |
| 20260904084524 | 27 | 352 | 3.2 | 11.3 | 0.00 | 0.05 | 0.00 | 67 | 1010.7 |
| 20260904084013 | 27 | 153 | 3.2 | 8.0 | 0.00 | 0.05 | 0.00 | 67 | 1010.7 |
| 20260904083513 | 27 | 194 | 1.6 | 9.7 | 0.00 | 0.05 | 0.00 | 67 | 1010.7 |
| 20260904083034 | 27 | 321 | 1.6 | 9.7 | 0.00 | 0.05 | 0.00 | 66 | 1010.7 |
| 20260904082516 | 27 | 188 | 3.2 | 9.7 | 0.00 | 0.05 | 0.00 | 66 | 1010.6 |
| 20260904082012 | 27 | 285 | 1.6 | 8.0 | 0.00 | 0.05 | 0.00 | 66 | 1010.6 |
| 20260904081522 | 27 | 138 | 1.6 | 12.9 | 0.00 | 0.05 | 0.00 | 66 | 1010.6 |
| 20260904081013 | 27 | 254 | 4.8 | 12.9 | 0.00 | 0.05 | 0.00 | 66 | 1010.6 |
| 20260904080517 | 27 | 163 | 1.6 | 14.5 | 0.00 | 0.05 | 0.00 | 66 | 1010.7 |
| 20260904080025 | 27 | 136 | 3.2 | 12.9 | 0.00 | 0.05 | 0.00 | 65 | 1010.7 |
| 20260904075514 | 27 | 81 | 1.6 | 8.0 | 0.00 | 0.05 | 0.00 | 66 | 1010.7 |
| 20260904075018 | 27 | 265 | 3.2 | 8.0 | 0.00 | 0.05 | 0.00 | 65 | 1010.7 |
| 20260904074537 | 27 | 164 | 1.6 | 12.9 | 0.00 | 0.05 | 0.00 | 65 | 1010.8 |
| 20260904074013 | 27 | 178 | 3.2 | 12.9 | 0.00 | 0.05 | 0.00 | 65 | 1010.7 |
| 20260904073513 | 27 | 157 | 3.2 | 8.0 | 0.00 | 0.05 | 0.00 | 65 | 1010.7 |
| 20260904073034 | 27 | 317 | 1.6 | 8.0 | 0.00 | 0.05 | 0.00 | 66 | 1010.8 |
| 20260904072513 | 27 | 223 | 1.6 | 8.0 | 0.00 | 0.05 | 0.00 | 66 | 1010.7 |
| 20260904072016 | 27 | 332 | 1.6 | 8.0 | 0.00 | 0.05 | 0.00 | 66 | 1010.7 |
| 20260904071522 | 27 | 337 | 1.6 | 6.4 | 0.00 | 0.05 | 0.00 | 66 | 1010.7 |
| 20260904071018 | 27 | 240 | 0.0 | 8.0 | 0.00 | 0.05 | 0.00 | 66 | 1010.8 |
| 20260904070504 | 27 | 190 | 0.0 | 11.3 | 0.00 | 0.05 | 0.00 | 65 | 1010.8 |
| 20260904070002 | 27 | 174 | 1.6 | 11.3 | 0.00 | 0.05 | 0.00 | 65 | 1010.8 |
| 20260904065503 | 27 | 49 | 1.6 | 4.8 | 0.00 | 0.05 | 0.00 | 65 | 1010.8 |
| 20260904065002 | 27 | 55 | 0.0 | 9.7 | 0.00 | 0.05 | 0.00 | 65 | 1010.7 |
| 20260904064510 | 27 | 121 | 1.6 | 9.7 | 0.00 | 0.05 | 0.00 | 65 | 1010.8 |
| 20260904064002 | 27 | 199 | 0.0 | 9.7 | 0.00 | 0.05 | 0.00 | 65 | 1010.9 |
| 20260904063504 | 27 | 147 | 1.6 | 9.7 | 0.00 | 0.05 | 0.00 | 64 | 1010.8 |
| 20260904063001 | 27 | 159 | 1.6 | 11.3 | 0.00 | 0.05 | 0.00 | 64 | 1010.8 |
| 20260904062503 | 27 | 273 | 1.6 | 11.3 | 0.00 | 0.05 | 0.00 | 64 | 1010.8 |
| 20260904062002 | 27 | 213 | 1.6 | 4.8 | 0.00 | 0.05 | 0.00 | 63 | 1010.8 |
| 20260904061506 | 27 | 166 | 1.6 | 6.4 | 0.00 | 0.05 | 0.00 | 64 | 1010.7 |
| 20260904061004 | 28 | 208 | 1.6 | 9.7 | 0.00 | 0.05 | 0.00 | 63 | 1010.7 |
| 20260904060506 | 28 | 213 | 3.2 | 9.7 | 0.00 | 0.05 | 0.00 | 63 | 1010.7 |
| 20260904060004 | 28 | 323 | 1.6 | 11.3 | 0.00 | 0.05 | 0.00 | 63 | 1010.7 |
| 20260904055502 | 28 | 65 | 1.6 | 12.9 | 0.00 | 0.05 | 0.00 | 62 | 1010.7 |
| 20260904055003 | 28 | 145 | 1.6 | 12.9 | 0.00 | 0.05 | 0.00 | 62 | 1010.7 |
| 20260904054508 | 28 | 77 | 0.0 | 8.0 | 0.00 | 0.05 | 0.00 | 62 | 1010.7 |
| 20260904054002 | 28 | 218 | 1.6 | 8.0 | 0.00 | 0.05 | 0.00 | 62 | 1010.5 |
| 20260904053502 | 28 | 210 | 3.2 | 8.0 | 0.00 | 0.05 | 0.00 | 62 | 1010.3 |
| 20260904053006 | 28 | 188 | 1.6 | 17.7 | 0.00 | 0.05 | 0.00 | 62 | 1010.4 |
| 20260904052503 | 28 | 23 | 3.2 | 17.7 | 0.00 | 0.05 | 0.00 | 62 | 1010.4 |
| 20260904052005 | 28 | 126 | 3.2 | 12.9 | 0.00 | 0.05 | 0.00 | 63 | 1010.3 |
| 20260904051504 | 28 | 229 | 3.2 | 12.9 | 0.00 | 0.05 | 0.00 | 63 | 1010.3 |
| 20260904051004 | 28 | 244 | 1.6 | 12.9 | 0.00 | 0.05 | 0.00 | 63 | 1010.4 |
| 20260904050505 | 28 | 159 | 0.0 | 4.8 | 0.00 | 0.05 | 0.00 | 63 | 1010.4 |
| 20260904050005 | 28 | 233 | 1.6 | 4.8 | 0.00 | 0.05 | 0.00 | 63 | 1010.3 |
| 20260904045505 | 28 | 208 | 0.0 | 6.4 | 0.00 | 0.05 | 0.05 | 63 | 1010.3 |
| 20260904045004 | 28 | 149 | 1.6 | 8.0 | 0.00 | 0.05 | 0.05 | 63 | 1010.3 |
| 20260904044503 | 28 | 98 | 1.6 | 8.0 | 0.00 | 0.05 | 0.05 | 63 | 1010.3 |
| 20260904044003 | 28 | 167 | 3.2 | 8.0 | 0.00 | 0.05 | 0.05 | 63 | 1010.2 |
| 20260904043503 | 28 | 182 | 0.0 | 12.9 | 0.00 | 0.05 | 0.05 | 63 | 1010.3 |
| 20260904043001 | 28 | 52 | 0.0 | 12.9 | 0.00 | 0.05 | 0.05 | 63 | 1010.2 |
| 20260904042503 | 28 | 242 | 1.6 | 8.0 | 0.00 | 0.05 | 0.05 | 63 | 1010.2 |
| 20260904042002 | 28 | 315 | 0.0 | 6.4 | 0.00 | 0.05 | 0.05 | 63 | 1010.2 |
| 20260904041504 | 28 | 103 | 0.0 | 6.4 | 0.00 | 0.05 | 0.05 | 63 | 1010.3 |
| 20260904041004 | 28 | 221 | 1.6 | 6.4 | 0.00 | 0.05 | 0.05 | 62 | 1010.2 |
| 20260904040502 | 28 | 348 | 1.6 | 12.9 | 0.00 | 0.05 | 0.05 | 62 | 1010.2 |
| 20260904040006 | 28 | 25 | 3.2 | 12.9 | 0.00 | 0.05 | 0.05 | 62 | 1010.2 |
| 20260904035504 | 28 | 251 | 3.2 | 12.9 | 0.00 | 0.05 | 0.05 | 62 | 1010.2 |
| 20260904035004 | 29 | 248 | 3.2 | 11.3 | 0.00 | 0.05 | 0.05 | 62 | 1010.2 |
| 20260904034511 | 29 | 272 | 1.6 | 4.8 | 0.00 | 0.05 | 0.05 | 62 | 1010.3 |
| 20260904034007 | 29 | 160 | 0.0 | 6.4 | 0.00 | 0.05 | 0.05 | 62 | 1010.3 |
| 20260904033504 | 29 | 96 | 0.0 | 6.4 | 0.00 | 0.05 | 0.05 | 62 | 1010.3 |
| 20260904033002 | 29 | 332 | 1.6 | 8.0 | 0.00 | 0.05 | 0.05 | 62 | 1010.3 |
| 20260904032509 | 28 | 86 | 3.2 | 8.0 | 0.00 | 0.05 | 0.05 | 63 | 1010.2 |
| 20260904032008 | 28 | 104 | 0.0 | 6.4 | 0.00 | 0.05 | 0.05 | 64 | 1010.2 |
| 20260904031504 | 29 | 17 | 1.6 | 6.4 | 0.00 | 0.05 | 0.05 | 63 | 1010.2 |
| 20260904031005 | 29 | 172 | 1.6 | 6.4 | 0.00 | 0.05 | 0.05 | 63 | 1010.1 |
| 20260904030503 | 29 | 158 | 0.0 | 6.4 | 0.00 | 0.05 | 0.05 | 63 | 1010.0 |
| 20260904030001 | 29 | 82 | 1.6 | 4.8 | 0.00 | 0.05 | 0.05 | 64 | 1009.9 |
| 20260904025504 | 29 | 232 | 1.6 | 4.8 | 0.00 | 0.05 | 0.05 | 63 | 1009.9 |
| 20260904025003 | 29 | 128 | 0.0 | 3.2 | 0.00 | 0.05 | 0.05 | 64 | 1010.0 |
| 20260904024506 | 29 | 74 | 0.0 | 3.2 | 0.00 | 0.05 | 0.05 | 64 | 1009.9 |
| 20260904024003 | 29 | 80 | 0.0 | 4.8 | 0.00 | 0.05 | 0.05 | 65 | 1009.9 |
| 20260904023505 | 29 | 80 | 0.0 | 4.8 | 0.00 | 0.05 | 0.05 | 64 | 1009.9 |
| 20260904023012 | 29 | 77 | 0.0 | 4.8 | 0.00 | 0.05 | 0.05 | 64 | 1009.9 |
| 20260904022504 | 29 | 119 | 1.6 | 6.4 | 0.00 | 0.05 | 0.05 | 63 | 1009.9 |
| 20260904022006 | 30 | 121 | 0.0 | 6.4 | 0.00 | 0.05 | 0.05 | 63 | 1009.8 |
| 20260904021516 | 30 | 194 | 1.6 | 4.8 | 0.00 | 0.05 | 0.05 | 62 | 1009.8 |
| 20260904021017 | 30 | 223 | 1.6 | 4.8 | 0.00 | 0.05 | 0.05 | 62 | 1009.7 |
| 20260904020504 | 30 | 35 | 0.0 | 6.4 | 0.00 | 0.05 | 0.05 | 62 | 1009.7 |
| 20260904020006 | 30 | 212 | 1.6 | 6.4 | 0.00 | 0.05 | 0.05 | 62 | 1009.7 |
| 20260904015505 | 30 | 5 | 0.0 | 4.8 | 0.00 | 0.05 | 0.05 | 61 | 1009.7 |
| 20260904015005 | 30 | 5 | 0.0 | 6.4 | 0.00 | 0.05 | 0.05 | 60 | 1009.6 |
| 20260904014505 | 30 | 120 | 1.6 | 8.0 | 0.00 | 0.05 | 0.05 | 60 | 1009.5 |
| 20260904014005 | 30 | 231 | 1.6 | 8.0 | 0.00 | 0.05 | 0.05 | 60 | 1009.4 |
| 20260904013505 | 31 | 221 | 1.6 | 8.0 | 0.00 | 0.05 | 0.05 | 59 | 1009.3 |
| 20260904013006 | 31 | 278 | 1.6 | 8.0 | 0.00 | 0.05 | 0.05 | 59 | 1009.3 |
| 20260904012508 | 31 | 170 | 3.2 | 11.3 | 0.00 | 0.05 | 0.05 | 58 | 1009.3 |
| 20260904012012 | 31 | 178 | 1.6 | 11.3 | 0.00 | 0.05 | 0.05 | 59 | 1009.1 |
| 20260904011502 | 31 | 191 | 0.0 | 9.7 | 0.00 | 0.05 | 0.05 | 59 | 1009.0 |
| 20260904011002 | 31 | 340 | 1.6 | 8.0 | 0.00 | 0.05 | 0.05 | 59 | 1009.1 |
| 20260904010511 | 31 | 203 | 3.2 | 11.3 | 0.00 | 0.05 | 0.05 | 59 | 1009.0 |
| 20260904010020 | 31 | 198 | 4.8 | 11.3 | 0.00 | 0.05 | 0.05 | 59 | 1009.0 |
| 20260904005503 | 31 | 119 | 1.6 | 11.3 | 0.00 | 0.05 | 0.05 | 59 | 1008.9 |
| 20260904005003 | 31 | 286 | 1.6 | 12.9 | 0.00 | 0.05 | 0.05 | 59 | 1008.9 |
| 20260904004526 | 31 | 90 | 3.2 | 12.9 | 0.00 | 0.05 | 0.05 | 58 | 1008.8 |
| 20260904004004 | 31 | 197 | 1.6 | 8.0 | 0.00 | 0.05 | 0.05 | 58 | 1008.8 |
| 20260904003503 | 32 | 219 | 0.0 | 8.0 | 0.00 | 0.05 | 0.05 | 59 | 1008.8 |
| 20260904003007 | 32 | 213 | 3.2 | 8.0 | 0.00 | 0.05 | 0.05 | 58 | 1008.8 |
| 20260904002506 | 32 | 309 | 1.6 | 6.4 | 0.00 | 0.05 | 0.05 | 58 | 1008.8 |
| 20260904002004 | 32 | 200 | 1.6 | 6.4 | 0.00 | 0.05 | 0.05 | 57 | 1008.8 |
| 20260904001516 | 32 | 225 | 1.6 | 6.4 | 0.00 | 0.05 | 0.05 | 57 | 1008.8 |
| 20260904001006 | 32 | 190 | 1.6 | 6.4 | 0.00 | 0.05 | 0.05 | 56 | 1008.7 |
| 20260904000511 | 32 | 188 | 3.2 | 6.4 | 0.00 | 0.05 | 0.05 | 56 | 1008.7 |
| 20260904000014 | 32 | 200 | 1.6 | 9.7 | 0.00 | 0.05 | 0.05 | 57 | 1008.6 |
| 20260903235509 | 33 | 259 | 1.6 | 12.9 | 0.00 | 0.05 | 0.05 | 55 | 1008.6 |
| 20260903235013 | 33 | 240 | 4.8 | 12.9 | 0.00 | 0.05 | 0.05 | 55 | 1008.7 |
| 20260903234506 | 33 | 279 | 3.2 | 12.9 | 0.00 | 0.05 | 0.05 | 55 | 1008.6 |
| 20260903234009 | 33 | 42 | 4.8 | 12.9 | 0.00 | 0.05 | 0.05 | 54 | 1008.6 |
| 20260903233510 | 33 | 219 | 1.6 | 6.4 | 0.00 | 0.05 | 0.05 | 56 | 1008.6 |
| 20260903233004 | 33 | 66 | 1.6 | 12.9 | 0.00 | 0.05 | 0.05 | 53 | 1008.6 |
| 20260903232508 | 33 | 224 | 4.8 | 12.9 | 0.00 | 0.05 | 0.05 | 53 | 1008.6 |
| 20260903232005 | 33 | 333 | 4.8 | 11.3 | 0.00 | 0.05 | 0.05 | 53 | 1008.6 |
| 20260903231512 | 33 | 209 | 3.2 | 11.3 | 0.00 | 0.05 | 0.05 | 53 | 1008.6 |
| 20260903231005 | 33 | 206 | 1.6 | 9.7 | 0.00 | 0.05 | 0.05 | 53 | 1008.4 |
| 20260903230505 | 33 | 174 | 1.6 | 12.9 | 0.00 | 0.05 | 0.05 | 52 | 1008.5 |
| 20260903230015 | 34 | 173 | 4.8 | 11.3 | 0.00 | 0.05 | 0.05 | 52 | 1008.5 |
| 20260903225510 | 34 | 242 | 1.6 | 11.3 | 0.00 | 0.05 | 0.05 | 53 | 1008.4 |
| 20260903225005 | 34 | 171 | 3.2 | 9.7 | 0.00 | 0.05 | 0.05 | 52 | 1008.5 |
| 20260903224517 | 35 | 65 | 1.6 | 8.0 | 0.00 | 0.05 | 0.05 | 52 | 1008.4 |
| 20260903224011 | 35 | 114 | 1.6 | 11.3 | 0.00 | 0.05 | 0.05 | 51 | 1008.3 |
| 20260903223514 | 35 | 212 | 3.2 | 12.9 | 0.00 | 0.05 | 0.05 | 52 | 1008.3 |
| 20260903223010 | 35 | 242 | 1.6 | 14.5 | 0.00 | 0.05 | 0.05 | 53 | 1008.3 |
| 20260903222516 | 35 | 274 | 1.6 | 14.5 | 0.00 | 0.05 | 0.05 | 52 | 1008.3 |
| 20260903222018 | 35 | 12 | 4.8 | 12.9 | 0.00 | 0.05 | 0.05 | 52 | 1008.4 |
| 20260903221505 | 35 | 179 | 4.8 | 14.5 | 0.00 | 0.05 | 0.05 | 53 | 1008.3 |
| 20260903221006 | 35 | 336 | 3.2 | 14.5 | 0.00 | 0.05 | 0.05 | 52 | 1008.3 |
| 20260903220505 | 35 | 295 | 3.2 | 19.3 | 0.00 | 0.05 | 0.05 | 53 | 1008.4 |
| 20260903220013 | 35 | 254 | 3.2 | 19.3 | 0.00 | 0.05 | 0.05 | 52 | 1008.3 |
| 20260903215509 | 35 | 74 | 3.2 | 16.1 | 0.00 | 0.05 | 0.05 | 51 | 1008.4 |
| 20260903215012 | 35 | 163 | 1.6 | 16.1 | 0.00 | 0.05 | 0.05 | 53 | 1008.4 |
| 20260903214519 | 35 | 101 | 3.2 | 16.1 | 0.00 | 0.05 | 0.05 | 52 | 1008.3 |
| 20260903214011 | 35 | 189 | 4.8 | 16.1 | 0.00 | 0.05 | 0.05 | 52 | 1008.4 |
| 20260903213515 | 35 | 79 | 3.2 | 12.9 | 0.00 | 0.05 | 0.05 | 53 | 1008.4 |
| 20260903213010 | 35 | 192 | 4.8 | 14.5 | 0.00 | 0.05 | 0.05 | 53 | 1008.5 |
| 20260903212516 | 35 | 180 | 3.2 | 14.5 | 0.00 | 0.05 | 0.05 | 51 | 1008.5 |
| 20260903212011 | 35 | 126 | 3.2 | 11.3 | 0.00 | 0.05 | 0.05 | 52 | 1008.4 |
| 20260903211518 | 35 | 220 | 4.8 | 12.9 | 0.00 | 0.05 | 0.05 | 51 | 1008.5 |
| 20260903211014 | 35 | 159 | 6.4 | 12.9 | 0.00 | 0.05 | 0.05 | 52 | 1008.5 |
| 20260903210518 | 35 | 289 | 1.6 | 11.3 | 0.00 | 0.05 | 0.05 | 54 | 1008.5 |
| 20260903210010 | 35 | 51 | 1.6 | 20.9 | 0.00 | 0.05 | 0.05 | 54 | 1008.6 |
| 20260903205509 | 35 | 152 | 4.8 | 20.9 | 0.00 | 0.05 | 0.05 | 54 | 1008.7 |
| 20260903205009 | 35 | 300 | 4.8 | 12.9 | 0.00 | 0.05 | 0.05 | 51 | 1008.7 |
| 20260903204512 | 35 | 212 | 4.8 | 12.9 | 0.00 | 0.05 | 0.05 | 51 | 1008.7 |
| 20260903204012 | 35 | 128 | 1.6 | 19.3 | 0.00 | 0.05 | 0.05 | 53 | 1008.8 |
| 20260903203511 | 35 | 264 | 4.8 | 19.3 | 0.00 | 0.05 | 0.05 | 54 | 1008.9 |
| 20260903203023 | 35 | 259 | 3.2 | 14.5 | 0.00 | 0.05 | 0.05 | 52 | 1008.9 |
| 20260903202509 | 35 | 342 | 4.8 | 14.5 | 0.00 | 0.05 | 0.05 | 52 | 1009.0 |
| 20260903202014 | 35 | 333 | 4.8 | 14.5 | 0.00 | 0.05 | 0.05 | 51 | 1008.9 |
| 20260903201522 | 35 | 201 | 1.6 | 19.3 | 0.00 | 0.05 | 0.05 | 53 | 1009.0 |
| 20260903201004 | 35 | 201 | 6.4 | 19.3 | 0.00 | 0.05 | 0.05 | 51 | 1009.0 |
| 20260903200504 | 35 | 344 | 3.2 | 12.9 | 0.00 | 0.05 | 0.05 | 51 | 1009.0 |
| 20260903200008 | 35 | 294 | 3.2 | 12.9 | 0.00 | 0.05 | 0.05 | 51 | 1009.0 |
| 20260903195506 | 35 | 55 | 1.6 | 14.5 | 0.00 | 0.05 | 0.05 | 51 | 1009.1 |
| 20260903195008 | 35 | 230 | 3.2 | 16.1 | 0.00 | 0.05 | 0.05 | 52 | 1009.1 |
| 20260903194512 | 34 | 75 | 4.8 | 16.1 | 0.00 | 0.05 | 0.05 | 55 | 1009.1 |
| 20260903194004 | 34 | 209 | 3.2 | 17.7 | 0.00 | 0.05 | 0.05 | 55 | 1009.1 |
| 20260903193509 | 34 | 245 | 4.8 | 17.7 | 0.00 | 0.05 | 0.05 | 55 | 1009.3 |
| 20260903193009 | 33 | 204 | 3.2 | 9.7 | 0.00 | 0.05 | 0.05 | 56 | 1009.4 |
| 20260903192511 | 33 | 165 | 1.6 | 9.7 | 0.00 | 0.05 | 0.05 | 56 | 1009.4 |
| 20260903192003 | 34 | 211 | 4.8 | 12.9 | 0.00 | 0.05 | 0.05 | 57 | 1009.4 |
| 20260903191508 | 33 | 150 | 3.2 | 12.9 | 0.00 | 0.05 | 0.05 | 55 | 1009.5 |
| 20260903191012 | 33 | 236 | 1.6 | 8.0 | 0.00 | 0.05 | 0.05 | 60 | 1009.7 |
| 20260903190504 | 33 | 232 | 1.6 | 11.3 | 0.00 | 0.05 | 0.05 | 57 | 1009.8 |
| 20260903190006 | 33 | 189 | 3.2 | 11.3 | 0.00 | 0.05 | 0.05 | 58 | 1009.9 |
| 20260903185503 | 33 | 205 | 3.2 | 14.5 | 0.00 | 0.05 | 0.05 | 56 | 1010.0 |
| 20260903185007 | 32 | 157 | 4.8 | 14.5 | 0.00 | 0.05 | 0.05 | 56 | 1009.9 |
| 20260903184510 | 33 | 65 | 1.6 | 9.7 | 0.00 | 0.05 | 0.05 | 58 | 1009.9 |
| 20260903184009 | 33 | 178 | 1.6 | 9.7 | 0.00 | 0.05 | 0.05 | 59 | 1010.1 |
| 20260903183513 | 32 | 56 | 1.6 | 9.7 | 0.00 | 0.05 | 0.05 | 58 | 1010.2 |
| 20260903183005 | 33 | 306 | 1.6 | 6.4 | 0.00 | 0.05 | 0.05 | 58 | 1010.2 |
| 20260903182511 | 33 | 102 | 0.0 | 14.5 | 0.00 | 0.05 | 0.05 | 62 | 1010.4 |
| 20260903182011 | 32 | 128 | 1.6 | 14.5 | 0.00 | 0.05 | 0.05 | 60 | 1010.4 |
| 20260903181523 | 32 | 141 | 1.6 | 8.0 | 0.00 | 0.05 | 0.05 | 59 | 1010.4 |
| 20260903181003 | 32 | 315 | 3.2 | 8.0 | 0.00 | 0.05 | 0.05 | 58 | 1010.6 |
| 20260903180512 | 32 | 161 | 1.6 | 6.4 | 0.00 | 0.05 | 0.05 | 57 | 1010.6 |
| 20260903180021 | 32 | 294 | 1.6 | 8.0 | 0.00 | 0.05 | 0.05 | 60 | 1010.7 |
| 20260903175510 | 32 | 229 | 3.2 | 8.0 | 0.00 | 0.05 | 0.05 | 56 | 1010.7 |
| 20260903175004 | 32 | 235 | 1.6 | 9.7 | 0.00 | 0.05 | 0.05 | 61 | 1010.8 |
| 20260903174508 | 31 | 285 | 1.6 | 9.7 | 0.00 | 0.05 | 0.05 | 58 | 1010.8 |
| 20260903174004 | 31 | 313 | 1.6 | 9.7 | 0.00 | 0.05 | 0.05 | 60 | 1010.7 |
| 20260903173504 | 31 | 161 | 3.2 | 9.7 | 0.00 | 0.05 | 0.05 | 59 | 1010.7 |
| 20260903173013 | 31 | 246 | 1.6 | 9.7 | 0.00 | 0.05 | 0.05 | 60 | 1010.8 |
| 20260903172511 | 31 | 205 | 1.6 | 12.9 | 0.00 | 0.05 | 0.05 | 61 | 1010.9 |
| 20260903172013 | 31 | 170 | 3.2 | 12.9 | 0.00 | 0.05 | 0.05 | 62 | 1011.1 |
| 20260903171512 | 30 | 108 | 0.0 | 8.0 | 0.00 | 0.05 | 0.05 | 65 | 1011.0 |
| 20260903171011 | 30 | 179 | 3.2 | 9.7 | 0.00 | 0.05 | 0.05 | 65 | 1010.9 |
| 20260903170510 | 30 | 157 | 3.2 | 9.7 | 0.00 | 0.05 | 0.05 | 67 | 1011.0 |
| 20260903170012 | 29 | 130 | 1.6 | 6.4 | 0.00 | 0.05 | 0.05 | 65 | 1011.1 |
| 20260903165515 | 29 | 223 | 3.2 | 6.4 | 0.00 | 0.05 | 0.05 | 68 | 1011.3 |
| 20260903165008 | 28 | 213 | 1.6 | 6.4 | 0.00 | 0.05 | 0.05 | 68 | 1011.4 |
| 20260903164533 | 28 | 187 | 0.0 | 3.2 | 0.00 | 0.05 | 0.05 | 69 | 1011.4 |
| 20260903164008 | 28 | 212 | 0.0 | 3.2 | 0.00 | 0.05 | 0.05 | 71 | 1011.3 |
| 20260903163506 | 27 | 340 | 1.6 | 4.8 | 0.00 | 0.05 | 0.05 | 74 | 1011.2 |
| 20260903163020 | 27 | 102 | 1.6 | 4.8 | 0.00 | 0.05 | 0.05 | 73 | 1011.1 |
| 20260903162506 | 27 | 265 | 0.0 | 3.2 | 0.00 | 0.05 | 0.05 | 76 | 1011.2 |
| 20260903162010 | 27 | 250 | 1.6 | 6.4 | 0.00 | 0.05 | 0.05 | 75 | 1011.1 |
| 20260903161519 | 27 | 92 | 0.0 | 6.4 | 0.00 | 0.05 | 0.05 | 71 | 1011.1 |
| 20260903161010 | 27 | 161 | 1.6 | 6.4 | 0.00 | 0.05 | 0.05 | 70 | 1011.2 |
| 20260903160510 | 27 | 15 | 0.0 | 4.8 | 0.00 | 0.05 | 0.05 | 70 | 1011.2 |
| 20260903160023 | 27 | 294 | 0.0 | 6.4 | 0.00 | 0.05 | 0.05 | 69 | 1011.2 |
| 20260903155507 | 27 | 175 | 1.6 | 6.4 | 0.00 | 0.05 | 0.05 | 69 | 1011.2 |
| 20260903155020 | 27 | 136 | 1.6 | 6.4 | 0.00 | 0.05 | 0.05 | 70 | 1011.3 |
| 20260903154515 | 27 | 140 | 1.6 | 6.4 | 0.00 | 0.05 | 0.05 | 69 | 1011.3 |
| 20260903154013 | 27 | 103 | 1.6 | 4.8 | 0.00 | 0.05 | 0.05 | 71 | 1011.3 |
| 20260903153515 | 27 | 160 | 0.0 | 4.8 | 0.00 | 0.05 | 0.05 | 71 | 1011.4 |
| 20260903153011 | 27 | 137 | 1.6 | 6.4 | 0.00 | 0.05 | 0.05 | 70 | 1011.4 |
| 20260903152507 | 27 | 108 | 3.2 | 11.3 | 0.00 | 0.05 | 0.05 | 70 | 1011.5 |
| 20260903152008 | 27 | 107 | 1.6 | 11.3 | 0.00 | 0.05 | 0.05 | 69 | 1011.6 |
| 20260903151514 | 26 | 95 | 1.6 | 9.7 | 0.00 | 0.05 | 0.05 | 73 | 1011.6 |
| 20260903151010 | 26 | 100 | 4.8 | 9.7 | 0.00 | 0.05 | 0.05 | 74 | 1011.5 |
| 20260903150514 | 26 | 115 | 1.6 | 3.2 | 0.00 | 0.05 | 0.05 | 77 | 1011.7 |
| 20260903150035 | 26 | 300 | 0.0 | 3.2 | 0.00 | 0.05 | 0.05 | 75 | 1011.7 |
| 20260903145508 | 26 | 300 | 1.6 | 4.8 | 0.00 | 0.05 | 0.05 | 74 | 1011.6 |
| 20260903145012 | 26 | 37 | 0.0 | 6.4 | 0.00 | 0.05 | 0.05 | 73 | 1011.3 |
| 20260903144534 | 26 | 92 | 1.6 | 6.4 | 0.00 | 0.05 | 0.05 | 73 | 1011.2 |
| 20260903144020 | 26 | 240 | 0.0 | 9.7 | 0.00 | 0.05 | 0.05 | 74 | 1011.2 |
| 20260903143511 | 26 | 225 | 0.0 | 9.7 | 0.00 | 0.05 | 0.05 | 75 | 1011.2 |
| 20260903143030 | 25 | 103 | 0.0 | 3.2 | 0.00 | 0.05 | 0.05 | 76 | 1011.2 |
| 20260903142513 | 25 | 108 | 1.6 | 3.2 | 0.00 | 0.05 | 0.05 | 77 | 1011.2 |
| 20260903142010 | 25 | 109 | 0.0 | 3.2 | 0.00 | 0.05 | 0.05 | 75 | 1011.1 |
| 20260903141528 | 25 | 121 | 0.0 | 3.2 | 0.00 | 0.05 | 0.05 | 75 | 1011.1 |
| 20260903141008 | 26 | 121 | 0.0 | 3.2 | 0.00 | 0.05 | 0.05 | 74 | 1011.1 |
| 20260903140509 | 26 | 127 | 0.0 | 3.2 | 0.00 | 0.05 | 0.05 | 74 | 1011.1 |
| 20260903140034 | 26 | 109 | 0.0 | 3.2 | 0.00 | 0.05 | 0.05 | 75 | 1011.0 |
| 20260903135513 | 26 | 22 | 0.0 | 4.8 | 0.00 | 0.05 | 0.05 | 74 | 1011.0 |
| 20260903135014 | 26 | 216 | 0.0 | 4.8 | 0.00 | 0.05 | 0.05 | 79 | 1011.0 |
| 20260903134523 | 25 | 127 | 0.0 | 3.2 | 0.00 | 0.05 | 0.05 | 78 | 1011.0 |
| 20260903134014 | 25 | 127 | 0.0 | 3.2 | 0.00 | 0.05 | 0.05 | 77 | 1011.0 |
| 20260903133513 | 25 | 123 | 0.0 | 3.2 | 0.00 | 0.05 | 0.05 | 77 | 1011.1 |
| 20260903133021 | 25 | 123 | 0.0 | 3.2 | 0.00 | 0.05 | 0.05 | 77 | 1011.2 |
| 20260903132510 | 25 | 123 | 0.0 | 3.2 | 0.00 | 0.05 | 0.05 | 77 | 1011.2 |
| 20260903132014 | 25 | 123 | 0.0 | 3.2 | 0.00 | 0.05 | 0.05 | 77 | 1011.2 |
| 20260903131524 | 24 | 145 | 0.0 | 4.8 | 0.00 | 0.05 | 0.05 | 79 | 1011.3 |
| 20260903131015 | 24 | 103 | 1.6 | 4.8 | 0.00 | 0.05 | 0.05 | 79 | 1011.4 |
| 20260903130512 | 24 | 105 | 0.0 | 4.8 | 0.00 | 0.05 | 0.05 | 80 | 1011.5 |
| 20260903130017 | 23 | 33 | 0.0 | 3.2 | 0.00 | 0.05 | 0.05 | 83 | 1011.4 |